Alturas, CA

8:41 AM PDT on August 25, 2016 (GMT -0700)
Alturas Municipal

Weather History for KAAT - September, 2013

Change the Weather History Date:

Tuesday, September 24, 2013

  Actual Average Record
Temperature  
Mean Temperature 51 °F 54 °F  
Max Temperature 62 °F 75 °F 92 °F (2009)
Min Temperature 39 °F 33 °F 20 °F (1961)
Degree Days  
Heating Degree Days 14 11  
Month to date heating degree days 125 190  
Since 1 July heating degree days 195 301  
Cooling Degree Days 0 0  
Month to date cooling degree days 25 3  
Year to date cooling degree days 280 154  
Moisture  
Dew Point 41 °F    
Average Humidity 74    
Maximum Humidity 100    
Minimum Humidity 47    
Precipitation  
Precipitation 0.24 in 0.02 in 0.24 in (2013)
Month to date precipitation 0.50 0.40  
Year to date precipitation 5.65 9.54  
Sea Level Pressure  
Sea Level Pressure 29.88 in    
Wind  
Wind Speed 7 mph (NW)    
Max Wind Speed 24 mph    
Max Gust Speed 31 mph    
Visibility 10 miles    
Events Rain    
T = Trace of Precipitation, MM = Missing Value Source: NWS Daily Summary

Daily Weather History Graph

Daily Weather History Graph

Search for Another Location

Airport or City:

Trip Planner

Search our weather history database for the weather conditions in past years. The results will help you decide how hot, cold, wet, or windy it might be!

Date:

Astronomy

Sep. 24, 2013 Rise Set
Actual Time 6:52 AM PDT 6:55 PM PDT
Civil Twilight 6:24 AM PDT 7:23 PM PDT
Nautical Twilight 5:52 AM PDT 7:55 PM PDT
Astronomical Twilight 5:19 AM PDT 8:28 PM PDT
Moon 10:13 PM PDT (9/24) 12:14 PM PDT (9/24)
Length of Visible Light 12h 58m
Length of Day
12h 03m
Waning Gibbous, 72% of the Moon is Illuminated
Sep 24
Waning Gibbous
Sep 26
Last Quarter
Oct 4
New
Oct 11
First Quarter
Oct 18
Full

Hourly Weather History & Observations

Time (PDT) Temp. Windchill Dew Point Humidity Pressure Visibility Wind Dir Wind Speed Gust Speed Precip Events Conditions
12:55 AM 48.0 °F - 37.0 °F 66% 29.93 in 10.0 mi Calm Calm - N/A   Clear
1:55 AM 48.9 °F - 37.9 °F 66% 29.91 in 10.0 mi Calm Calm - N/A   Clear
2:55 AM 48.9 °F - 39.0 °F 69% 29.91 in 10.0 mi Calm Calm - N/A   Partly Cloudy
3:55 AM 48.0 °F - 39.0 °F 71% 29.88 in 10.0 mi Calm Calm - N/A   Scattered Clouds
4:55 AM 48.9 °F - 39.0 °F 69% 29.87 in 10.0 mi Calm Calm - N/A   Overcast
5:55 AM 50.0 °F - 39.0 °F 66% 29.85 in 10.0 mi Calm Calm - N/A   Overcast
6:55 AM 50.0 °F - 42.1 °F 74% 29.87 in 10.0 mi Calm Calm - 0.00 in   Mostly Cloudy
7:55 AM 50.0 °F - 43.0 °F 77% 29.89 in 10.0 mi Calm Calm - N/A   Overcast
8:48 AM 51.8 °F - 44.6 °F 76% 29.95 in 10.0 mi NW 8.1 mph - N/A   Overcast
8:55 AM 50.0 °F - 44.1 °F 80% 29.90 in 10.0 mi NW 12.7 mph - N/A   Overcast
9:55 AM 50.0 °F - 45.0 °F 83% 29.92 in 10.0 mi NW 5.8 mph - 0.04 in Rain Light Rain
10:55 AM 52.0 °F - 45.0 °F 77% 29.91 in 10.0 mi NNW 5.8 mph - 0.00 in   Overcast
11:44 AM 53.6 °F - 44.6 °F 72% 29.96 in 10.0 mi West 10.4 mph - N/A   Overcast
11:55 AM 54.0 °F - 43.0 °F 66% 29.91 in 10.0 mi West 11.5 mph - N/A   Overcast
12:55 PM 61.0 °F - 41.0 °F 48% 29.88 in 10.0 mi West 20.7 mph 29.9 mph N/A   Scattered Clouds
1:55 PM 57.0 °F - 39.9 °F 53% 29.88 in 10.0 mi NW 17.3 mph 23.0 mph N/A   Mostly Cloudy
2:55 PM 59.0 °F - 39.0 °F 48% 29.86 in 10.0 mi NW 13.8 mph 23.0 mph N/A   Clear
3:55 PM 57.0 °F - 37.9 °F 49% 29.86 in 10.0 mi NNW 10.4 mph 18.4 mph N/A   Partly Cloudy
4:55 PM 53.1 °F - 39.0 °F 59% 29.85 in 10.0 mi NW 9.2 mph - 0.00 in Rain Light Rain
5:55 PM 53.1 °F - 37.0 °F 55% 29.83 in 10.0 mi NW 10.4 mph - 0.00 in   Mostly Cloudy
6:55 PM 46.9 °F - 42.1 °F 83% 29.82 in 10.0 mi Calm Calm - 0.03 in   Scattered Clouds
7:45 PM 44.6 °F 39.7 °F 39.2 °F 81% 29.88 in 9.0 mi NNW 9.2 mph 18.4 mph 0.01 in Rain Light Rain
7:55 PM 45.0 °F 38.5 °F 41.0 °F 86% 29.85 in 10.0 mi NW 13.8 mph 19.6 mph 0.02 in Rain Light Rain
8:55 PM 44.1 °F 38.1 °F 42.1 °F 93% 29.86 in 10.0 mi WNW 11.5 mph - 0.04 in Rain Light Rain
9:55 PM 42.1 °F 39.2 °F 42.1 °F 100% 29.86 in 10.0 mi NE 4.6 mph - 0.04 in Rain Light Rain
10:15 PM 42.8 °F - 42.8 °F 100% 29.89 in 9.0 mi Calm Calm - 0.00 in Rain Light Rain
10:36 PM 39.2 °F 32.5 °F 39.2 °F 100% 29.90 in 6.0 mi North 10.4 mph - 0.03 in Rain Rain
10:55 PM 39.0 °F 35.7 °F 39.0 °F 100% 29.87 in 10.0 mi NNE 4.6 mph - 0.05 in Rain Light Rain
11:55 PM 39.0 °F 34.8 °F 39.0 °F 100% 29.86 in 10.0 mi SE 5.8 mph - 0.01 in Rain Light Rain